Simultaneous Nadir Overpasses (SNOs) Predictions

Prediction of SNOs between FY3D and METOP-A Satellite Orbit:

Table of predicted SNOs for the next 14.0 days since TLE Epoch: 11/20/2021
Index Date (FY3D) Time (FY3D) Lat,Lon (FY3D) SZA (FY3D ) Date (METOP-A) Time (METOP-A) Lat,Lon (METOP-A) SZA (METOP-A ) Distance(km) Time Diff (sec)
1 11/22/2021 15:43:24 77.76, -75.28 98.40 11/22/2021 15:43:59 77.75, -75.20 98.39 1.99 35
2 11/22/2021 16:34:08 -77.72, 92.20 81.64 11/22/2021 16:34:15 -77.72, 92.08 81.63 2.89 7
3 11/22/2021 17:24:55 77.72,-100.47 98.37 11/22/2021 17:24:12 77.71,-100.43 98.38 0.78 43
4 11/22/2021 18:15:39 -77.68, 67.02 81.67 11/22/2021 18:14:28 -77.68, 66.83 81.65 4.51 71
5 11/28/2021 00:20:18 77.77, 155.46 99.48 11/28/2021 00:21:18 77.75, 155.43 99.44 2.58 60
6 11/28/2021 01:11:03 -77.75, -37.13 80.55 11/28/2021 01:11:27 -77.76, -37.06 80.55 1.95 24
7 11/28/2021 02:01:50 77.74, 130.21 99.45 11/28/2021 02:01:33 77.75, 130.37 99.46 3.87 17
8 11/28/2021 02:52:35 -77.72, -62.38 80.57 11/28/2021 02:51:43 -77.71, -62.33 80.57 1.55 52
9 12/03/2021 13:11:57 -77.77, 142.58 79.63 12/03/2021 13:13:03 -77.76, 142.55 79.66 1.00 66
10 12/03/2021 14:02:44 77.76, -50.07 100.36 12/03/2021 14:03:18 77.77, -49.99 100.36 2.13 34
11 12/03/2021 14:53:30 -77.75, 117.26 79.64 12/03/2021 14:53:22 -77.72, 117.27 79.68 4.26 8
12 12/03/2021 15:44:16 77.70, -75.18 100.30 12/03/2021 15:43:37 77.73, -75.24 100.34 3.02 39



Historial Predications of SNOs between FY3D and METOP-A
